| time (UTC) | temp C | wind direction | speed KPH | gust KPH | rain 1hr cm | rain 24hr cm | rain mn cm | humidity % | barometer mb |
| 20260508064542 | 15 | 248 | 0.0 | 0.0 | 0.00 | 0.00 | 0.00 | 17 | 1005.6 |
| 20260508063029 | 14 | 248 | 0.0 | 0.0 | 0.00 | 0.00 | 0.00 | 18 | 1005.5 |
| 20260508061531 | 14 | 248 | 0.0 | 0.0 | 0.00 | 0.00 | 0.00 | 18 | 1006.1 |
| 20260508060025 | 14 | 248 | 0.0 | 0.0 | 0.00 | 0.00 | 0.00 | 17 | 1006.1 |
| 20260508054538 | 14 | 248 | 0.0 | 0.0 | 0.00 | 0.00 | 0.00 | 17 | 1006.0 |
| 20260508053024 | 15 | 248 | 0.0 | 0.0 | 0.00 | 0.00 | 0.00 | 16 | 1006.0 |
| 20260508051523 | 14 | 248 | 0.0 | 0.0 | 0.00 | 0.00 | 0.00 | 17 | 1006.3 |
| 20260508050023 | 15 | 248 | 0.0 | 0.0 | 0.00 | 0.00 | 0.00 | 16 | 1005.8 |
| 20260508044523 | 15 | 248 | 0.0 | 0.0 | 0.00 | 0.00 | 0.00 | 15 | 1006.0 |
| 20260508043022 | 15 | 248 | 0.0 | 0.0 | 0.00 | 0.00 | 0.00 | 15 | 1005.7 |
| 20260508041522 | 15 | 248 | 0.0 | 0.0 | 0.00 | 0.00 | 0.00 | 14 | 1006.5 |
| 20260508040037 | 16 | 248 | 0.0 | 0.0 | 0.00 | 0.00 | 0.00 | 13 | 1006.1 |
| 20260508034529 | 16 | 248 | 0.0 | 0.0 | 0.00 | 0.00 | 0.00 | 12 | 1005.9 |
| 20260508033020 | 17 | 248 | 0.0 | 0.0 | 0.00 | 0.00 | 0.00 | 11 | 1005.1 |
| 20260508031521 | 18 | 248 | 0.0 | 0.0 | 0.00 | 0.00 | 0.00 | 11 | 1006.1 |
| 20260508030022 | 18 | 248 | 0.0 | 0.0 | 0.00 | 0.00 | 0.00 | 10 | 1006.0 |
| 20260508024524 | 19 | 248 | 0.0 | 0.0 | 0.00 | 0.00 | 0.00 | 9 | 1005.5 |
| 20260508023018 | 20 | 248 | 0.0 | 0.0 | 0.00 | 0.00 | 0.00 | 9 | 1004.8 |
| 20260508021519 | 20 | 248 | 0.0 | 0.0 | 0.00 | 0.00 | 0.00 | 8 | 1005.5 |
| 20260508020017 | 21 | 248 | 0.0 | 0.0 | 0.00 | 0.00 | 0.00 | 8 | 1004.9 |
| 20260508014517 | 22 | 248 | 0.0 | 0.0 | 0.00 | 0.00 | 0.00 | 7 | 1004.8 |
| 20260508013016 | 23 | 237 | 0.0 | 0.0 | 0.00 | 0.00 | 0.00 | 7 | 1004.1 |
| 20260508011516 | 23 | 186 | 0.0 | 0.0 | 0.00 | 0.00 | 0.00 | 8 | 1004.9 |
| 20260508010016 | 23 | 186 | 0.0 | 0.0 | 0.00 | 0.00 | 0.00 | 9 | 1004.4 |
| 20260508004510 | 24 | 186 | 0.0 | 0.0 | 0.00 | 0.00 | 0.00 | 10 | 1004.4 |
| 20260508003007 | 23 | 146 | 0.0 | 0.0 | 0.00 | 0.00 | 0.00 | 10 | 1004.4 |
| 20260508001506 | 23 | 146 | 0.0 | 0.0 | 0.00 | 0.00 | 0.00 | 10 | 1004.6 |
| 20260507234601 | 24 | 124 | 0.0 | 0.0 | 0.00 | 0.00 | 0.00 | 10 | 1004.8 |
| 20260507233111 | 23 | 120 | 0.0 | 0.0 | 0.00 | 0.00 | 0.00 | 10 | 1004.8 |
| 20260507231550 | 23 | 115 | 0.0 | 0.0 | 0.00 | 0.00 | 0.00 | 10 | 1004.7 |
| 20260507230051 | 23 | 139 | 0.0 | 0.0 | 0.00 | 0.00 | 0.00 | 10 | 1004.8 |
| 20260507224544 | 23 | 125 | 0.0 | 0.0 | 0.00 | 0.00 | 0.00 | 11 | 1005.2 |
| 20260507223055 | 23 | 124 | 0.0 | 0.0 | 0.00 | 0.00 | 0.00 | 11 | 1005.4 |
| 20260507221543 | 23 | 159 | 0.0 | 0.0 | 0.00 | 0.00 | 0.00 | 12 | 1005.3 |
| 20260507220041 | 23 | 169 | 0.0 | 0.0 | 0.00 | 0.00 | 0.00 | 12 | 1005.7 |
| 20260507214542 | 23 | 165 | 0.0 | 0.0 | 0.00 | 0.00 | 0.00 | 13 | 1005.9 |
| 20260507213043 | 23 | 169 | 0.0 | 0.0 | 0.00 | 0.00 | 0.00 | 13 | 1006.2 |
| 20260507211546 | 23 | 183 | 0.0 | 0.0 | 0.00 | 0.00 | 0.00 | 13 | 1006.6 |
| 20260507210043 | 23 | 143 | 0.0 | 0.0 | 0.00 | 0.00 | 0.00 | 13 | 1006.9 |
| 20260507204531 | 23 | 114 | 0.0 | 0.0 | 0.00 | 0.00 | 0.00 | 14 | 1007.6 |
| 20260507203026 | 22 | 92 | 0.0 | 0.0 | 0.00 | 0.00 | 0.00 | 15 | 1008.0 |
| 20260507201521 | 22 | 89 | 0.0 | 0.0 | 0.00 | 0.00 | 0.00 | 16 | 1008.2 |
| 20260507200018 | 21 | 64 | 0.0 | 0.0 | 0.00 | 0.00 | 0.00 | 18 | 1008.0 |
| 20260507194530 | 21 | 63 | 0.0 | 0.0 | 0.00 | 0.00 | 0.00 | 17 | 1008.8 |
| 20260507193015 | 20 | 63 | 0.0 | 0.0 | 0.00 | 0.00 | 0.00 | 18 | 1009.6 |
| 20260507191512 | 20 | 59 | 0.0 | 0.0 | 0.00 | 0.00 | 0.00 | 20 | 1009.5 |
| 20260507190015 | 19 | 59 | 0.0 | 0.0 | 0.00 | 0.00 | 0.00 | 21 | 1009.7 |
| 20260507184510 | 20 | 20 | 0.0 | 0.0 | 0.00 | 0.00 | 0.00 | 20 | 1010.2 |
| 20260507183011 | 19 | 20 | 0.0 | 0.0 | 0.00 | 0.00 | 0.00 | 20 | 1010.6 |
| 20260507181506 | 18 | 16 | 0.0 | 0.0 | 0.00 | 0.00 | 0.00 | 22 | 1011.0 |
| 20260507180005 | 17 | 0 | 0.0 | 0.0 | 0.00 | 0.00 | 0.00 | 24 | 1010.8 |
| 20260507174508 | 18 | 351 | 0.0 | 0.0 | 0.00 | 0.00 | 0.00 | 24 | 1011.4 |
| 20260507173118 | 17 | 351 | 0.0 | 0.0 | 0.00 | 0.00 | 0.00 | 27 | 1011.8 |
| 20260507171557 | 16 | 350 | 0.0 | 0.0 | 0.00 | 0.00 | 0.00 | 28 | 1011.9 |
| 20260507170056 | 16 | 350 | 0.0 | 0.0 | 0.00 | 0.00 | 0.00 | 31 | 1012.2 |
| 20260507164611 | 16 | 352 | 0.0 | 0.0 | 0.00 | 0.00 | 0.00 | 36 | 1012.8 |
| 20260507163051 | 14 | 352 | 0.0 | 0.0 | 0.00 | 0.00 | 0.00 | 38 | 1013.4 |
| 20260507161552 | 13 | 1 | 0.0 | 0.0 | 0.00 | 0.00 | 0.00 | 38 | 1013.2 |
| 20260507160040 | 13 | 1 | 0.0 | 0.0 | 0.00 | 0.00 | 0.00 | 41 | 1013.8 |
| 20260507154537 | 12 | 2 | 0.0 | 0.0 | 0.00 | 0.00 | 0.00 | 46 | 1014.3 |
| 20260507153040 | 11 | 2 | 0.0 | 0.0 | 0.00 | 0.00 | 0.00 | 49 | 1014.8 |
| 20260507151533 | 10 | 1 | 0.0 | 0.0 | 0.00 | 0.00 | 0.00 | 52 | 1014.4 |
| 20260507150033 | 9 | 359 | 0.0 | 0.0 | 0.00 | 0.00 | 0.00 | 57 | 1014.8 |
| 20260507144534 | 8 | 338 | 0.0 | 0.0 | 0.00 | 0.00 | 0.00 | 61 | 1015.2 |
| 20260507143028 | 7 | 1 | 0.0 | 0.0 | 0.00 | 0.00 | 0.00 | 64 | 1015.5 |
| 20260507141526 | 7 | 347 | 1.6 | 0.0 | 0.00 | 0.00 | 0.00 | 66 | 1015.3 |
| 20260507140025 | 6 | 359 | 0.0 | 0.0 | 0.00 | 0.00 | 0.00 | 68 | 1015.2 |
| 20260507134525 | 6 | 325 | 1.6 | 0.0 | 0.00 | 0.00 | 0.00 | 69 | 1015.6 |
| 20260507133027 | 6 | 359 | 0.0 | 0.0 | 0.00 | 0.00 | 0.00 | 71 | 1015.3 |
| 20260507131524 | 5 | 349 | 0.0 | 0.0 | 0.00 | 0.00 | 0.00 | 72 | 1014.9 |
| 20260507130022 | 5 | 359 | 1.6 | 0.0 | 0.00 | 0.00 | 0.00 | 72 | 1015.0 |
| 20260507124530 | 5 | 1 | 0.0 | 0.0 | 0.00 | 0.00 | 0.00 | 73 | 1015.1 |
| 20260507123023 | 5 | 6 | 3.2 | 0.0 | 0.00 | 0.00 | 0.00 | 73 | 1015.0 |
| 20260507121519 | 4 | 1 | 1.6 | 0.0 | 0.00 | 0.00 | 0.00 | 72 | 1015.5 |
| 20260507120017 | 4 | 359 | 0.0 | 0.0 | 0.00 | 0.00 | 0.00 | 71 | 1015.4 |
| 20260507114516 | 5 | 359 | 0.0 | 0.0 | 0.00 | 0.00 | 0.00 | 70 | 1015.5 |
| 20260507113034 | 5 | 359 | 0.0 | 0.0 | 0.00 | 0.00 | 0.00 | 67 | 1015.2 |
| 20260507111511 | 5 | 359 | 0.0 | 0.0 | 0.00 | 0.00 | 0.00 | 66 | 1014.4 |
| 20260507110015 | 5 | 0 | 0.0 | 0.0 | 0.00 | 0.00 | 0.00 | 65 | 1014.4 |
| 20260507104508 | 5 | 359 | 0.0 | 0.0 | 0.00 | 0.00 | 0.00 | 65 | 1014.1 |
| 20260507103008 | 5 | 359 | 0.0 | 0.0 | 0.00 | 0.00 | 0.00 | 65 | 1014.1 |
| 20260507101514 | 5 | 359 | 0.0 | 0.0 | 0.00 | 0.00 | 0.00 | 65 | 1013.9 |
| 20260507100005 | 5 | 359 | 0.0 | 0.0 | 0.00 | 0.00 | 0.00 | 64 | 1014.0 |
| 20260507094504 | 5 | 0 | 0.0 | 0.0 | 0.00 | 0.00 | 0.00 | 62 | 1013.9 |
| 20260507093002 | 6 | 1 | 0.0 | 0.0 | 0.00 | 0.00 | 0.00 | 59 | 1014.1 |
| 20260507091635 | 6 | 1 | 0.0 | 0.0 | 0.00 | 0.00 | 0.00 | 47 | 1013.4 |
| 20260507090056 | 6 | 1 | 0.0 | 0.0 | 0.00 | 0.00 | 0.00 | 43 | 1013.0 |
| 20260507084604 | 7 | 1 | 0.0 | 0.0 | 0.00 | 0.00 | 0.00 | 38 | 1012.9 |
| 20260507083051 | 7 | 1 | 0.0 | 0.0 | 0.00 | 0.00 | 0.00 | 36 | 1012.6 |
| 20260507081557 | 7 | 1 | 0.0 | 0.0 | 0.00 | 0.00 | 0.00 | 35 | 1012.6 |
| 20260507080049 | 7 | 1 | 0.0 | 0.0 | 0.00 | 0.00 | 0.00 | 34 | 1012.6 |
| 20260507074553 | 7 | 276 | 0.0 | 0.0 | 0.00 | 0.00 | 0.00 | 36 | 1012.3 |
| 20260507073046 | 7 | 276 | 0.0 | 0.0 | 0.00 | 0.00 | 0.00 | 35 | 1012.2 |
| 20260507071544 | 7 | 276 | 0.0 | 0.0 | 0.00 | 0.00 | 0.00 | 36 | 1012.1 |
| 20260507070044 | 8 | 276 | 0.0 | 0.0 | 0.00 | 0.00 | 0.00 | 34 | 1011.8 |